Погода в Куриловом

Россия / Московская область     56°05′31″N   36°54′38″E
темп.,
°C
ветер,
м/с
пор.,
м/с
влажн.,
%
обл.,
%
осадки,
мм/ч
давл.,
гПа
погр.,
м
21 апреля, ср
ср2100:00+2в4897100 0.8 1012508
03:00+2св3798100 1.7 1009411
06:00+1ссв2499100 2.3 1005208
09:00+2зюз1299100 4.3 1004147
12:00+2зюз4792100 0.2 1005712
15:00+4зюз3787100 0.3 1007890
18:00+5зюз3886100 0.0 1008723
21:00+4ююз3793100 0.1 1010253
22 апреля, чт
чт2200:00+4ююз3895100 0.0 1011262
03:00+3ю399575 0.0 1012278
06:00+3ююз399539 0.0 1013324
09:00+7ююз5885100 0.0 1013588
12:00+9ююз5875100 0.0 1014969
15:00+11ююз587592 0.2 10141075
18:00+10ю4975100 0.0 1014632
21:00+8ююв5128745 0.0 1014398
23 апреля, пт
пт2300:00+7ю4129482 0.1 1014418
03:00+6ююв4139662 0.1 1013367
06:00+6ю5139389 0.0 1013457
09:00+10ю6127823 0.1 1013780
12:00+13ююз7146879 0.6 10121726
15:00+11зюз5978100 2.3 10131073
18:00+7юз269372 6.7 1014397
21:00+6з2396100 8.7 1013218
24 апреля, сб
сб2400:00+6всв3696100 4.5 1010204
03:00+7юв1797100 7.9 1008455
06:00+6юв1795100 0.5 1006460
09:00+3сз4697100 1.9 1006264
12:00+2сз4698100 1.2 1006273
15:00+1зсз51399100 6.0 1006478
18:00+3зсз51094100 1.9 1006737
21:00+2зюз2694100 2.0 1006194
25 апреля, вс
вс2500:00+2юз3792100 0.0 1005202
03:000юз4119499 0.0 1005363
06:00+1зюз51095100 0.3 1006544
09:00+1зюз51089100 0.4 1006807
12:00+3юз598098 0.1 10071170
15:00+5зюз6107241 0.4 10081449
18:00+4юз510735 0.1 10071297
21:00+1ююз411875 0.1 1008405